[[{"header":{"parameterUnit":"m.s-1","parameterCategory":1,"la1":30.2991,"la2":30.254,"lo1":-89.0895,"lo2":-89.0444,"dy":0.0017,"dx":0.0017,"nx":28,"ny":28,"refTime":"2025-11-27T09:00:00:Z","depth":0,"parameterNumber":2,"parameterNumberName":"U-component_of_WINDS"},"data":[0,0,0,0,0,0,0,0,0,0,0,0,0,0,0,0,0,0,0,0,0,0,0,0,0,0,0,0,0,0,0,0,0,0,0,0,0,0,0,0,0,0,0,0,0,0,0,0,0,0,0,0,0,0,0,0,0,0,0.4804,0.4803,0,0.477,0.477,0.4769,0.4783,0.4784,0.4785,0.4786,0.4748,0.4746,0.4745,0,0,0,0,0,0,0,0,0,0,0,0,0,0.4877,0.4875,0.4804,0.4803,0.4803,0.477,0.477,0.4769,0.4783,0.4784,0.4785,0.4786,0.4749,0.4747,0.4744,0,0,0,0,0,0,0,0,0,0,0,0,0,0.4844,0.4875,0.4804,0.4806,0.4806,0.477,0.477,0.4769,0.4783,0.4784,0.4785,0.4787,0.4749,0.4747,0.4744,0.4703,0,0,0.4736,0.4735,0,0,0,0,0,0,0,0,0.4846,0.4842,0.4806,0.4806,0.4805,0.4782,0.4782,0.4747,0.4783,0.4792,0.4786,0.4787,0.4758,0.4755,0.4746,0.4702,0.47,0.4736,0.4734,0.4733,0.4732,0,0,0,0,0,0,0,0.4848,0.4843,0.479,0.4805,0.4805,0.4808,0.4804,0.4775,0.4768,0.4791,0.4792,0.4788,0.4758,0.4748,0.4745,0.47,0.4736,0.4734,0.4732,0.4731,0.4621,0.462,0,0,0,0,0,0,0.4851,0.4845,0.4791,0.4789,0.4829,0.4805,0.4802,0.4788,0.4769,0.4767,0.4787,0.4789,0.4752,0.4748,0.4744,0.4695,0.4733,0.4731,0.4729,0.4622,0.4621,0.4619,0,0,0,0,0,0,0.4853,0.4846,0.4793,0.4817,0.4811,0.4803,0.4788,0.4787,0.4777,0.4766,0.4764,0.4778,0.4753,0.4747,0.4714,0.4694,0.4729,0.4727,0.4624,0.4622,0.462,0.4596,0,0,0,0,0,0,0.4855,0.4847,0.4831,0.4817,0.4809,0.4764,0.4787,0.4786,0.4773,0.4775,0.4757,0.4755,0.4754,0.4718,0.4711,0.4691,0.4725,0.4626,0.4623,0.4621,0.4599,0.4594,0.4589,0,0,0,0,0,0.4857,0.4825,0.4831,0.4824,0.479,0.4762,0.4758,0.4758,0.4771,0.4756,0.4749,0.4756,0.4698,0.4714,0.4707,0.4685,0.4627,0.4624,0.4621,0.4601,0.4595,0.4589,0,0,0,0,0,0,0.4836,0.4823,0.4829,0.4792,0.4778,0.4765,0.4745,0.4751,0.4732,0.4735,0.4735,0.473,0.4695,0.4687,0.4706,0.4645,0.4664,0.466,0.4651,0.4645,0.4641,0.4642,0.4723,0,0,0,0,0,0.4827,0.4806,0.4796,0.4764,0.4757,0.4752,0.474,0.4741,0.4727,0.4721,0.4711,0.4696,0.4674,0.466,0.4639,0.4599,0.4595,0.458,0.4576,0.4572,0.4567,0.4545,0.4538,0.4609,0.4609,0.461,0,0,0.4808,0.4798,0.4785,0.4759,0.4749,0.4727,0.4747,0.4723,0.4706,0.4717,0.4684,0.4677,0.466,0.4623,0.4606,0.4615,0.4547,0.4568,0.4565,0.4562,0.4541,0.4534,0.4528,0.4607,0.4608,0.4608,0,0,0.4761,0.4753,0.4725,0.4715,0.47,0.4697,0.4691,0.4677,0.4673,0.4641,0.4649,0.4629,0.4592,0.4579,0.4568,0.452,0.4525,0.4513,0.4487,0.4466,0.446,0.4455,0.4437,0.443,0.4509,0.4509,0.4509,0,0.4738,0.4706,0.4709,0.4684,0.4673,0.4684,0.4656,0.4645,0.4624,0.4615,0.4626,0.4581,0.457,0.453,0.4518,0.4509,0.4501,0.4514,0.4461,0.4456,0.4451,0.4434,0.4427,0.4507,0.4508,0.4508,0.4508,0,0.4679,0.4656,0.4636,0.4616,0.4603,0.4576,0.4575,0.456,0.4564,0.456,0.4527,0.4516,0.4493,0.4484,0.4486,0.4445,0.4451,0.4462,0.448,0.4443,0.4426,0.442,0.4505,0.4506,0.4506,0.4507,0,0,0.4614,0.4599,0.4591,0.4583,0.4568,0.455,0.4525,0.4504,0.4492,0.4477,0.4455,0.4425,0.4435,0.4422,0.4424,0.4405,0.4367,0.4418,0.4418,0.4408,0.4319,0.431,0.4302,0.4372,0.4371,0.437,0.432,0,0.4565,0.4521,0.4524,0.4482,0.4461,0.4473,0.4451,0.4439,0.4435,0.4417,0.4413,0.439,0.4406,0.4399,0.4381,0.4375,0.4349,0.4379,0.435,0.4348,0.4351,0.4294,0.4283,0.4237,0.4314,0.4313,0.4312,0,0.4502,0.4487,0.4443,0.4432,0.4424,0.4403,0.4385,0.4368,0.4355,0.4354,0.4341,0.4346,0.432,0.4341,0.4305,0.4325,0.4314,0.431,0.4308,0.4303,0.4326,0.4286,0.4222,0.4215,0.4302,0.4303,0.4304,0,0.4457,0.4426,0.4396,0.4389,0.4376,0.4362,0.4356,0.4345,0.4332,0.4317,0.4309,0.429,0.4279,0.4264,0.4264,0.428,0.4226,0.4248,0.4223,0.4223,0.4209,0.421,0.4141,0.4206,0.4206,0.4206,0.4206,0,0.4401,0.4373,0.4376,0.4357,0.4327,0.4331,0.4301,0.4296,0.4287,0.4267,0.4276,0.4257,0.4259,0.424,0.424,0.4209,0.4204,0.4202,0.4202,0.42,0.42,0.419,0.4193,0.4204,0.4204,0.4205,0.4205,0,0.4345,0.4346,0.4314,0.4306,0.4303,0.4281,0.4273,0.4255,0.4254,0.4229,0.4223,0.422,0.4198,0.4197,0.4172,0.4172,0.4134,0.4138,0.4138,0.4138,0.4113,0.4115,0.4035,0.4024,0.4097,0.4096,0.4096,0,0.4308,0.4287,0.4277,0.4265,0.4259,0.4239,0.4227,0.4232,0.4219,0.4204,0.4188,0.4167,0.4151,0.4115,0.411,0.4091,0.4094,0.4067,0.4091,0.409,0.4091,0.4092,0.4089,0.4062,0.4061,0.406,0.406,0,0.4241,0.4243,0.4226,0.421,0.4196,0.4183,0.4171,0.4161,0.4164,0.4149,0.4128,0.4115,0.409,0.4069,0.4051,0.4044,0.4052,0.4053,0.4046,0.4042,0.4042,0.4041,0.4123,0.4054,0.4054,0.4055,0.4055,0.4055,0.4192,0.4174,0.4165,0.4146,0.4138,0.4127,0.411,0.4108,0.409,0.4071,0.4075,0.4051,0.404,0.4016,0.4008,0.3989,0.3998,0.3988,0.3985,0.3982,0.3979,0.4048,0.3986,0.3986,0.3986,0.3987,0.3987,0,0.4124,0.412,0.4103,0.4087,0.4072,0.4084,0.4071,0.4058,0.4037,0.4027,0.4011,0.3987,0.3967,0.3962,0.3943,0.3928,0.3932,0.3923,0.3923,0.3921,0.3973,0.398,0.3921,0.3921,0.3921,0.3921,0.3921,0.3921,0.4087,0.4058,0.4059,0.4026,0.4022,0.3999,0.3991,0.3981,0.3973,0.3946,0.393,0.3927,0.3919,0.39,0.3883,0.3882,0.3874,0.3863,0.3863,0.3911,0.3918,0.3924,0.393,0.3862,0.3862,0.3813,0.3813,0.3812]},{"header":{"parameterUnit":"m.s-1","parameterCategory":1,"la1":30.2991,"la2":30.254,"lo1":-89.0895,"lo2":-89.0444,"dy":0.0017,"dx":0.0017,"nx":28,"ny":28,"refTime":"2025-11-27T09:00:00:Z","depth":0,"parameterNumber":3,"parameterNumberName":"V-component_of_WINDS"},"data":[0,0,0,0,0,0,0,0,0,0,0,0,0,0,0,0,0,0,0,0,0,0,0,0,0,0,0,0,0,0,0,0,0,0,0,0,0,0,0,0,0,0,0,0,0,0,0,0,0,0,0,0,0,0,0,0,0,0,-6.5394,-6.5396,0,-6.557,-6.5572,-6.5574,-6.5479,-6.5474,-6.547,-6.5465,-6.5639,-6.5648,-6.5657,0,0,0,0,0,0,0,0,0,0,0,0,0,-6.4969,-6.4977,-6.5394,-6.5396,-6.5398,-6.557,-6.5572,-6.5575,-6.548,-6.5474,-6.5468,-6.5463,-6.5636,-6.5647,-6.5658,0,0,0,0,0,0,0,0,0,0,0,0,0,-6.515,-6.498,-6.5393,-6.5372,-6.5372,-6.5569,-6.5572,-6.5575,-6.5481,-6.5474,-6.5467,-6.546,-6.5633,-6.5646,-6.5659,-6.5886,0,0,-6.5701,-6.5707,0,0,0,0,0,0,0,0,-6.514,-6.5165,-6.5373,-6.5374,-6.5374,-6.5496,-6.5486,-6.5679,-6.5483,-6.544,-6.5465,-6.5457,-6.5597,-6.5613,-6.5661,-6.5894,-6.5902,-6.5702,-6.571,-6.5716,-6.572,0,0,0,0,0,0,0,-6.5127,-6.5157,-6.5463,-6.5376,-6.5377,-6.5351,-6.5369,-6.5522,-6.5556,-6.5443,-6.5436,-6.5459,-6.5595,-6.5648,-6.5665,-6.5904,-6.5702,-6.5714,-6.5722,-6.5727,-6.6332,-6.634,0,0,0,0,0,0,-6.5117,-6.5148,-6.5458,-6.5469,-6.5237,-6.5365,-6.5385,-6.5464,-6.5554,-6.5561,-6.5465,-6.5454,-6.5629,-6.5649,-6.567,-6.5943,-6.5716,-6.5729,-6.5736,-6.6324,-6.6334,-6.6342,0,0,0,0,0,0,-6.5108,-6.5145,-6.545,-6.5307,-6.5343,-6.538,-6.5469,-6.5471,-6.5524,-6.5571,-6.5575,-6.5513,-6.5624,-6.5651,-6.5834,-6.5947,-6.5735,-6.5747,-6.6315,-6.6327,-6.6338,-6.6489,0,0,0,0,0,0,-6.5096,-6.5143,-6.5231,-6.5309,-6.5352,-6.5614,-6.5476,-6.5479,-6.5548,-6.5536,-6.5617,-6.5624,-6.562,-6.5814,-6.5847,-6.5962,-6.5758,-6.6305,-6.632,-6.6334,-6.6474,-6.6504,-6.6531,0,0,0,0,0,-6.5081,-6.5265,-6.5236,-6.5274,-6.5463,-6.562,-6.5644,-6.5638,-6.5558,-6.5646,-6.5676,-6.5621,-6.5929,-6.5833,-6.587,-6.5991,-6.6298,-6.6316,-6.6333,-6.6461,-6.6498,-6.653,0,0,0,0,0,0,-6.5196,-6.5275,-6.5244,-6.5458,-6.5534,-6.5604,-6.5715,-6.5678,-6.5776,-6.576,-6.5746,-6.5765,-6.5955,-6.5991,-6.5882,-6.6215,-6.6101,-6.6127,-6.6185,-6.6221,-6.6249,-6.6237,-6.5769,0,0,0,0,0,-6.5247,-6.5371,-6.5431,-6.5615,-6.5654,-6.5679,-6.5747,-6.5736,-6.5812,-6.5843,-6.5886,-6.5961,-6.6074,-6.6149,-6.6256,-6.6478,-6.6494,-6.6579,-6.6607,-6.663,-6.6653,-6.6773,-6.6812,-6.6401,-6.6401,-6.64,0,0,-6.5352,-6.541,-6.5489,-6.5639,-6.5696,-6.5823,-6.5706,-6.5844,-6.5937,-6.5863,-6.6039,-6.6074,-6.6156,-6.6359,-6.6451,-6.6395,-6.677,-6.6653,-6.6671,-6.6682,-6.6796,-6.6834,-6.6869,-6.6413,-6.6411,-6.6409,0,0,-6.5609,-6.5666,-6.5825,-6.5886,-6.5975,-6.599,-6.6028,-6.6105,-6.6126,-6.6302,-6.625,-6.6359,-6.6555,-6.6616,-6.6672,-6.6953,-6.6907,-6.6988,-6.7136,-6.7253,-6.7286,-6.7314,-6.7415,-6.7451,-6.701,-6.7011,-6.7011,0,-6.5728,-6.5919,-6.5911,-6.6055,-6.6123,-6.6064,-6.6224,-6.6282,-6.6401,-6.6448,-6.6383,-6.6629,-6.668,-6.6897,-6.6966,-6.7013,-6.7056,-6.6979,-6.7282,-6.7311,-6.7337,-6.7433,-6.7471,-6.702,-6.7019,-6.7018,-6.7017,0,-6.6061,-6.6194,-6.6312,-6.6431,-6.6512,-6.6663,-6.6676,-6.6758,-6.674,-6.6762,-6.6942,-6.7001,-6.712,-6.717,-6.7153,-6.7385,-6.7348,-6.7284,-6.7168,-6.7386,-6.7476,-6.7512,-6.7034,-6.703,-6.7027,-6.7025,0,0,-6.6396,-6.651,-6.6553,-6.6607,-6.6701,-6.6802,-6.695,-6.7069,-6.7139,-6.7222,-6.7346,-6.7513,-6.7455,-6.7519,-6.7508,-6.7611,-6.783,-6.7534,-6.7535,-6.7587,-6.809,-6.8139,-6.8181,-6.78,-6.7807,-6.7812,-6.8083,0,-6.666,-6.6922,-6.6919,-6.7161,-6.7283,-6.7229,-6.7357,-6.7428,-6.7452,-6.7557,-6.7582,-6.7702,-6.7615,-6.7654,-6.7753,-6.7783,-6.7931,-6.7763,-6.7913,-6.7918,-6.7895,-6.8228,-6.828,-6.8533,-6.8118,-6.8124,-6.8128,0,-6.7003,-6.7101,-6.7356,-6.7433,-6.7484,-6.76,-6.7708,-6.781,-6.7889,-6.7898,-6.7971,-6.7944,-6.8093,-6.7973,-6.8177,-6.8063,-6.8123,-6.8147,-6.8157,-6.8171,-6.8037,-6.8252,-6.8613,-6.8652,-6.8183,-6.8179,-6.8175,0,-6.7222,-6.7417,-6.7595,-6.7642,-6.7736,-6.782,-6.7862,-6.7934,-6.8005,-6.8099,-6.8145,-6.8253,-6.8313,-6.8397,-6.84,-6.8312,-6.8606,-6.8486,-6.8617,-6.8617,-6.8682,-6.8678,-6.9059,-6.872,-6.872,-6.8719,-6.8718,0,-6.7518,-6.7676,-6.7695,-6.7805,-6.798,-6.7974,-6.8147,-6.8181,-6.8246,-6.8359,-6.8318,-6.8425,-6.8421,-6.853,-6.8532,-6.8701,-6.8727,-6.8738,-6.8737,-6.8743,-6.8742,-6.8783,-6.8766,-6.8729,-6.8727,-6.8725,-6.8723,0,-6.7793,-6.7812,-6.8003,-6.8077,-6.8099,-6.8225,-6.8287,-6.8391,-6.841,-6.8555,-6.8588,-6.8619,-6.8745,-6.8756,-6.89,-6.8901,-6.9106,-6.9085,-6.9081,-6.9077,-6.9208,-6.9196,-6.963,-6.9686,-6.931,-6.9314,-6.9316,0,-6.7981,-6.8101,-6.8189,-6.8264,-6.8312,-6.8432,-6.8506,-6.8504,-6.8582,-6.8681,-6.8772,-6.8894,-6.8991,-6.9194,-6.9228,-6.9338,-6.932,-6.9464,-6.9336,-6.9338,-6.9323,-6.9316,-6.9328,-6.9489,-6.9494,-6.9497,-6.95,0,-6.8312,-6.8316,-6.8425,-6.8538,-6.8628,-6.8716,-6.8798,-6.886,-6.8869,-6.8958,-6.9087,-6.9163,-6.9312,-6.9433,-6.9542,-6.9582,-6.9543,-6.954,-6.9576,-6.9583,-6.9576,-6.9583,-6.9149,-6.953,-6.9527,-6.9525,-6.9523,-6.9522,-6.855,-6.8655,-6.8734,-6.8856,-6.8919,-6.8997,-6.9098,-6.9132,-6.924,-6.9363,-6.9355,-6.9498,-6.9572,-6.9714,-6.9763,-6.9874,-6.9825,-6.9877,-6.989,-6.9904,-6.9918,-6.9559,-6.9893,-6.9892,-6.9891,-6.9891,-6.989,0,-6.888,-6.8928,-6.9041,-6.9159,-6.9255,-6.9212,-6.93,-6.9383,-6.9511,-6.9585,-6.9682,-6.9831,-6.9948,-6.9992,-7.0106,-7.0186,-7.017,-7.0216,-7.021,-7.022,-6.9954,-6.9912,-7.0226,-7.0226,-7.0226,-7.0226,-7.0226,-7.0226,-6.9063,-6.9239,-6.9252,-6.9458,-6.9504,-6.9647,-6.9701,-6.9772,-6.9832,-7.0,-7.0099,-7.0127,-7.0189,-7.0307,-7.0413,-7.0422,-7.0466,-7.052,-7.0522,-7.0273,-7.0239,-7.0206,-7.0167,-7.0529,-7.053,-7.0778,-7.078,-7.0782]}]]